Find Starlink 30088

NORAD ID: 57462 Int'l Des: 2023-107 Owner: SPXS Country: US Constellation: starlink operational
LEOCIRCULAR

Current View

Loading 3D Globe...

About Starlink 30088

Starlink 30088 (NORAD 57462) is a starlink constellation satellite (v2 mini) launched Jul 28, 2023 by SPXS of US. It operates in LEO, CIRCULAR orbit with a mass of 730.00 kg.

About Starlink 30088

Description loading...

Upcoming Passes

Passes for default location (London). Set your location on the main map for personalized predictions.

Altitude History

Loading altitude history...

Two-Line Element Set

1 57462U 23107F 26175.07069700 -.00003739 00000-0 -12639-3 0 9995
2 57462 43.0019 95.5831 0001554 265.3503 94.7171 15.27585071161416
Epoch: Jun 24, 2026 • Age: 11 hours

Current Status

Altitude 488.8 km
Velocity 7.62 km/s
Sub-Earth Point -25.82°S, 38.35°W
Launch Date Jul 28, 2023
Age 2.9 years
Type internet

Technical Details

Classification Payload
Mass 730.00 kg
Dry Mass 700.00 kg
Total Mass 730.00 kg
Length 0.30 m
Diameter 4.10 m
Span 29.00 m
Shape Box + pan
Manufacturer SPXS
Bus Type Starlink V2M
Phase Status In Orbit
Owner/State SPXS/US

Most Searched